Tracking 33188 objects as of 10-Feb-2026
HD Live streaming from Space Station
objects crossing your sky now

COSMOS 252 DEB

Track COSMOS 252 DEB now!
10-day predictions


NORAD ID: 18490
Int'l Code: 1968-097EN
Perigee: 515.9 km
Apogee: 1,101.7 km
Inclination: 62.7 °
Period: 100.9 minutes
Semi major axis: 7179 km
RCS: 0.002 m2 (small)
Launch date: November 1, 1968
Source: Commonwealth of Independent States (former USSR) (CIS)
Launch site: TYURATAM MISSILE AND SPACE COMPLEX (TTMTR)

Note: This is SATELLITE DEBRIS
Your satellite tracking list
Your tracking list is empty




NASA's NSSDC Master Catalog

Two Line Element Set (TLE):
1 18490U 68097EN  26040.39555668  .00003205  00000-0  56368-3 0  9992
2 18490  62.7417 187.3019 0407967 328.9527  28.7984 14.27042711694173
Source of the keplerian elements: AFSPC